"TOA5","MOW","CPU:UNC_MeetingWaters","DataHourly"
"TIMESTAMP","SondeTempC","SpCond","DOSat","DOmg","pH","Turb","BattVolt_Min"
"TS","","","","","","",""
"","Smp","Smp","Smp","Smp","Smp","Smp","Min"
"2004-10-01 00:00:00",20.2399997711,0.00300000002608,0.899999976158,0.0799999982119,7.86999988556,4.30000019073,12.4899997711
"2004-10-01 01:00:00",20.1700000763,0.00300000002608,1.0,0.0900000035763,7.86000013351,4.19999980927,12.4799995422
"2004-10-01 02:00:00",20.1100006104,0.00300000002608,1.0,0.0900000035763,7.86000013351,3.90000009537,12.470000267
"2004-10-01 03:00:00",20.0599994659,0.00300000002608,1.0,0.0900000035763,7.86000013351,4.40000009537,12.4600000381
"2004-10-01 04:00:00",20.0400009155,0.00300000002608,1.0,0.0900000035763,7.88999986649,4.0,12.4600000381
"2004-10-01 05:00:00",20.0699996948,0.00300000002608,1.0,0.0900000035763,7.90000009537,4.0,12.4499998093
"2004-10-01 06:00:00",20.0499992371,0.00300000002608,1.0,0.0900000035763,7.88000011444,4.40000009537,12.4399995804
"2004-10-01 07:00:00",20.0699996948,0.00300000002608,1.0,0.0900000035763,7.94000005722,4.09999990463,12.4300003052
"2004-10-01 08:00:00",20.1100006104,0.00300000002608,1.0,0.0900000035763,7.92999982834,4.0,12.4300003052
"2004-10-01 09:00:00",20.1700000763,0.00300000002608,1.0,0.0900000035763,7.94000005722,3.5,12.4099998474
"2004-10-01 10:00:00",20.3299999237,0.019999999553,1.20000004768,0.109999999404,7.90000009537,3.29999995232,12.5100002289
"2004-10-01 11:00:00",20.4899997711,0.00400000018999,1.10000002384,0.10000000149,7.88999986649,3.90000009537,12.7399997711
"2004-10-01 12:00:00",20.8400001526,0.00300000002608,1.10000002384,0.10000000149,7.86999988556,3.79999995232,12.6800003052
"2004-10-01 13:00:00",20.8500003815,0.00300000002608,1.10000002384,0.10000000149,7.90000009537,3.40000009537,13.1400003433
"2004-10-01 14:00:00",21.2800006866,0.00300000002608,1.10000002384,0.10000000149,7.86000013351,3.40000009537,12.8299999237
"2004-10-01 15:00:00",21.6399993896,0.00200000009499,1.10000002384,0.10000000149,7.82000017166,4.0,13.1000003815
"2004-10-01 16:00:00",21.8099994659,0.00200000009499,1.10000002384,0.10000000149,7.90999984741,5.69999980927,12.779999733
"2004-10-01 17:00:00",21.7000007629,0.00200000009499,1.10000002384,0.0900000035763,7.84999990463,7.5,12.6899995804
"2004-10-01 18:00:00",21.6599998474,0.00200000009499,1.10000002384,0.0900000035763,7.92000007629,7.40000009537,12.5699996948
"2004-10-01 19:00:00",21.4599990845,0.00200000009499,1.0,0.0900000035763,7.84999990463,7.0,12.5500001907
"2004-10-01 20:00:00",21.3799991608,0.00200000009499,1.0,0.0900000035763,7.82999992371,5.59999990463,12.529999733
"2004-10-01 21:00:00",21.2999992371,0.00200000009499,1.0,0.0900000035763,7.80999994278,5.40000009537,12.529999733
"2004-10-01 22:00:00",21.2000007629,0.00300000002608,1.0,0.0900000035763,7.84999990463,4.40000009537,12.5100002289
"2004-10-01 23:00:00",21.1599998474,0.00300000002608,1.0,0.0900000035763,7.82000017166,4.40000009537,12.5100002289
"2004-10-02 00:00:00",21.1000003815,0.00300000002608,1.0,0.0900000035763,7.82000017166,3.70000004768,12.4899997711
"2004-10-02 01:00:00",21.0499992371,0.00300000002608,1.0,0.0900000035763,7.80999994278,3.29999995232,12.4799995422
"2004-10-02 02:00:00",21.0300006866,0.00300000002608,1.0,0.0900000035763,7.82999992371,3.20000004768,12.470000267
"2004-10-02 03:00:00",20.9899997711,0.00300000002608,1.0,0.0900000035763,7.82999992371,4.0,12.4499998093
"2004-10-02 04:00:00",20.9300003052,0.00300000002608,1.0,0.0900000035763,7.78999996185,3.59999990463,12.4399995804
"2004-10-02 05:00:00",20.9200000763,0.00300000002608,1.0,0.0900000035763,7.78000020981,4.09999990463,12.4300003052
"2004-10-02 06:00:00",20.8899993896,0.00300000002608,1.0,0.0900000035763,7.86999988556,3.29999995232,12.4300003052
"2004-10-02 07:00:00",20.8799991608,0.00300000002608,1.0,0.0900000035763,7.88999986649,3.09999990463,12.4200000763
"2004-10-02 08:00:00",20.8799991608,0.00300000002608,1.0,0.0900000035763,7.94000005722,2.90000009537,12.4099998474
"2004-10-02 09:00:00",20.9799995422,0.00300000002608,1.0,0.0900000035763,7.92000007629,2.70000004768,12.4300003052
"2004-10-02 10:00:00",21.2399997711,0.00300000002608,1.0,0.0900000035763,7.90999984741,2.70000004768,12.5399999619
"2004-10-02 11:00:00",21.2800006866,0.00400000018999,1.10000002384,0.0900000035763,7.92999982834,2.70000004768,12.8100004196
"2004-10-02 12:00:00",21.2600002289,0.00400000018999,1.10000002384,0.0900000035763,7.94000005722,3.09999990463,12.6099996567
"2004-10-02 13:00:00",22.2099990845,0.00300000002608,1.10000002384,0.0900000035763,7.98000001907,3.0,13.0900001526
"2004-10-02 14:00:00",21.8299999237,0.194999992847,1.20000004768,0.109999999404,8.02000045776,3.0,13.0699996948
"2004-10-02 15:00:00",22.3500003815,0.00300000002608,1.10000002384,0.10000000149,8.01000022888,3.0,12.720000267
"2004-10-02 16:00:00",24.0200004578,0.0860000029206,1.10000002384,0.0900000035763,8.22000026703,1413.0,12.720000267
"2004-10-02 17:00:00",23.5400009155,0.115000002086,1.10000002384,0.10000000149,7.73000001907,1411.0,12.6400003433
"2004-10-02 18:00:00",23.2399997711,0.137999996543,1.10000002384,0.0900000035763,7.53000020981,1124.0,12.5500001907
"2004-10-02 19:00:00",22.8899993896,0.143000006676,1.10000002384,0.0900000035763,7.40999984741,1406.0,12.529999733
"2004-10-02 20:00:00",22.3299999237,0.082999996841,1.0,0.0900000035763,7.57999992371,1357.0,12.5100002289
"2004-10-02 21:00:00",22.1299991608,0.125,1.0,0.0900000035763,7.46999979019,867.0,12.5100002289
"2004-10-02 22:00:00",21.8999996185,0.162000000477,1.0,0.0900000035763,7.46999979019,670.400024414,12.4899997711
"2004-10-02 23:00:00",21.6800003052,0.20000000298,1.0,0.0900000035763,7.51000022888,579.799987793,12.4899997711
"2004-10-03 00:00:00",21.4500007629,0.231999993324,1.0,0.0900000035763,7.55000019073,530.700012207,12.470000267
"2004-10-03 01:00:00",21.2099990845,0.246000006795,1.0,0.0900000035763,7.57000017166,481.200012207,12.4499998093
"2004-10-03 02:00:00",20.9899997711,0.244000002742,1.0,0.0900000035763,7.59999990463,437.200012207,12.4399995804
"2004-10-03 03:00:00",20.75,0.188999995589,1.0,0.0900000035763,7.63000011444,343.899993896,12.4300003052
"2004-10-03 04:00:00",20.5400009155,0.159999996424,1.0,0.0900000035763,7.65999984741,313.0,12.3999996185
"2004-10-03 05:00:00",20.3099994659,0.15000000596,1.0,0.0900000035763,7.69000005722,281.799987793,12.3900003433
"2004-10-03 06:00:00",20.0900001526,0.150999993086,1.0,0.0900000035763,7.71000003815,259.200012207,12.3699998856
"2004-10-03 07:00:00",19.8899993896,0.156000003219,1.0,0.0900000035763,7.73999977112,218.5,12.3599996567
"2004-10-03 08:00:00",19.7000007629,0.157000005245,1.0,0.0900000035763,7.76999998093,181.0,12.3500003815
"2004-10-03 09:00:00",19.6700000763,0.158000007272,1.0,0.0900000035763,7.80000019073,167.300003052,12.4799995422
"2004-10-03 10:00:00",19.8199996948,0.166999995708,1.0,0.0900000035763,7.82999992371,133.899993896,13.0500001907
"2004-10-03 11:00:00",20.0499992371,0.178000003099,1.0,0.0900000035763,7.88999986649,115.5,12.8900003433
"2004-10-03 12:00:00",20.2199993134,0.182999998331,1.10000002384,0.10000000149,7.92999982834,87.9000015259,12.6800003052
"2004-10-03 13:00:00",20.4099998474,0.187999993563,1.10000002384,0.10000000149,7.94999980927,66.4000015259,13.220000267
"2004-10-03 14:00:00",20.6700000763,0.190999999642,1.10000002384,0.10000000149,7.94999980927,56.0,13.1899995804
"2004-10-03 15:00:00",20.8999996185,0.190999999642,1.10000002384,0.10000000149,7.92000007629,48.4000015259,12.8299999237
"2004-10-03 16:00:00",21.0200004578,0.00600000005215,1.0,0.0900000035763,7.84999990463,41.9000015259,13.1499996185
"2004-10-03 17:00:00",20.9400005341,0.184000000358,1.10000002384,0.10000000149,7.86000013351,38.7999992371,12.5900001526
"2004-10-03 18:00:00",20.9200000763,0.180999994278,1.10000002384,0.0900000035763,7.84999990463,38.0,12.5600004196
"2004-10-03 19:00:00",20.8799991608,0.179000005126,1.10000002384,0.10000000149,7.84000015259,35.5999984741,12.5500001907
"2004-10-03 20:00:00",20.7700004578,0.00300000002608,0.899999976158,0.0799999982119,7.80000019073,37.5,12.529999733
"2004-10-03 21:00:00",20.6900005341,0.00300000002608,0.899999976158,0.0799999982119,7.80999994278,34.4000015259,12.5200004578
"2004-10-03 22:00:00",20.6200008392,0.00300000002608,0.899999976158,0.0799999982119,7.82000017166,28.6000003815,12.5100002289
"2004-10-03 23:00:00",20.4899997711,0.00300000002608,0.899999976158,0.0799999982119,7.84000015259,22.7999992371,12.4899997711
"2004-10-04 00:00:00",20.3600006104,0.00300000002608,0.899999976158,0.0799999982119,7.84999990463,20.3999996185,12.4899997711
"2004-10-04 01:00:00",20.1299991608,0.00200000009499,0.899999976158,0.0799999982119,7.86000013351,16.6000003815,12.470000267
"2004-10-04 02:00:00",19.9300003052,0.00200000009499,0.899999976158,0.0799999982119,7.86000013351,16.5,12.4499998093
"2004-10-04 03:00:00",19.8600006104,0.00200000009499,0.899999976158,0.0799999982119,7.84999990463,16.6000003815,12.4300003052
"2004-10-04 04:00:00",19.8799991608,0.00300000002608,0.899999976158,0.0799999982119,7.84999990463,15.1000003815,12.4300003052
"2004-10-04 05:00:00",19.8500003815,0.00300000002608,0.899999976158,0.0799999982119,7.84999990463,13.1999998093,12.4099998474
"2004-10-04 06:00:00",19.7900009155,0.00300000002608,0.899999976158,0.0799999982119,7.84999990463,14.0,12.3900003433
"2004-10-04 07:00:00",19.7900009155,0.00200000009499,0.899999976158,0.0799999982119,7.86000013351,13.6000003815,12.3900003433
"2004-10-04 08:00:00",19.7399997711,0.00200000009499,0.899999976158,0.0799999982119,7.88999986649,13.1000003815,12.3800001144
"2004-10-04 09:00:00",19.6200008392,0.00200000009499,0.899999976158,0.0799999982119,7.88000011444,11.6000003815,12.3800001144
"2004-10-04 10:00:00",19.7900009155,0.381999999285,1.0,0.0900000035763,7.96000003815,18.5,12.6000003815
"2004-10-04 11:00:00",20.0499992371,0.231999993324,1.10000002384,0.10000000149,8.0,22.7999992371,12.8100004196
"2004-10-04 12:00:00",20.4099998474,0.282999992371,1.10000002384,0.10000000149,8.02999973297,23.2000007629,13.1599998474
"2004-10-04 13:00:00",21.0400009155,0.591000020504,1.20000004768,0.109999999404,8.02000045776,44.0,13.1599998474
"2004-10-04 14:00:00",21.0599994659,0.340999990702,1.10000002384,0.10000000149,8.0,52.7999992371,12.6599998474
"2004-10-04 15:00:00",21.2000007629,0.189999997616,1.10000002384,0.10000000149,7.96999979019,70.6999969482,13.1099996567
"2004-10-04 16:00:00",21.0799999237,0.181999996305,1.10000002384,0.10000000149,7.94999980927,82.8000030518,13.0699996948
"2004-10-04 17:00:00",20.9099998474,0.00400000018999,1.0,0.0900000035763,7.86999988556,153.800003052,12.6199998856
"2004-10-04 18:00:00",20.7700004578,0.00700000021607,1.0,0.0900000035763,7.84999990463,333.299987793,12.5699996948
"2004-10-04 19:00:00",20.5,0.00200000009499,0.899999976158,0.0799999982119,7.84000015259,317.200012207,12.5399999619
"2004-10-04 20:00:00",20.25,0.00200000009499,0.899999976158,0.0799999982119,7.84999990463,205.0,12.529999733
"2004-10-04 21:00:00",19.9699993134,0.00200000009499,0.800000011921,0.0799999982119,7.84000015259,160.0,12.5
"2004-10-04 22:00:00",19.5799999237,0.00200000009499,0.800000011921,0.0799999982119,7.76999998093,153.300003052,12.4799995422
"2004-10-04 23:00:00",19.4599990845,0.00200000009499,0.800000011921,0.0799999982119,7.82000017166,143.699996948,12.470000267
"2004-10-05 00:00:00",19.1700000763,0.00200000009499,0.800000011921,0.0799999982119,7.84999990463,112.199996948,12.4600000381
"2004-10-05 01:00:00",18.8299999237,0.0010000000475,0.800000011921,0.0799999982119,7.84000015259,84.5999984741,12.4399995804
"2004-10-05 02:00:00",18.5100002289,0.0010000000475,0.800000011921,0.0799999982119,7.80999994278,74.6999969482,12.4200000763
"2004-10-05 03:00:00",18.1100006104,0.0010000000475,0.800000011921,0.0799999982119,7.86000013351,76.4000015259,12.4099998474
"2004-10-05 04:00:00",18.0200004578,0.0010000000475,0.800000011921,0.0799999982119,7.84999990463,63.5,12.3900003433
"2004-10-05 05:00:00",17.9799995422,0.0010000000475,0.800000011921,0.0799999982119,7.86999988556,51.0999984741,12.3699998856
"2004-10-05 06:00:00",17.7999992371,0.0010000000475,0.800000011921,0.0799999982119,7.86999988556,48.4000015259,12.3599996567
"2004-10-05 07:00:00",17.5499992371,0.0010000000475,0.800000011921,0.0799999982119,7.90000009537,43.7999992371,12.3400001526
"2004-10-05 08:00:00",17.1399993896,0.0010000000475,0.800000011921,0.0799999982119,7.92999982834,48.2999992371,12.3299999237
"2004-10-05 09:00:00",16.6900005341,0.0010000000475,0.800000011921,0.0799999982119,7.94999980927,49.7000007629,12.3299999237
"2004-10-05 10:00:00",16.9899997711,0.0010000000475,0.800000011921,0.0799999982119,7.96000003815,41.9000015259,13.0100002289
"2004-10-05 11:00:00",17.9899997711,0.0010000000475,0.800000011921,0.070000000298,7.98999977112,31.2999992371,12.9799995422
"2004-10-05 12:00:00",17.5799999237,0.0010000000475,0.800000011921,0.070000000298,8.0,25.1000003815,13.25
"2004-10-05 13:00:00",18.2600002289,0.231999993324,1.0,0.10000000149,8.06999969482,32.5999984741,13.25
"2004-10-05 14:00:00",18.4899997711,0.00200000009499,0.899999976158,0.0799999982119,8.05000019073,26.1000003815,13.2299995422
"2004-10-05 15:00:00",19.3099994659,0.0010000000475,0.899999976158,0.0799999982119,8.09000015259,19.3999996185,13.1899995804
"2004-10-05 16:00:00",18.7000007629,0.0010000000475,0.800000011921,0.0799999982119,8.10000038147,16.7999992371,13.1599998474
"2004-10-05 17:00:00",18.5300006866,0.0010000000475,0.800000011921,0.0799999982119,7.96999979019,23.2999992371,12.6099996567
"2004-10-05 18:00:00",18.4500007629,0.0010000000475,0.800000011921,0.0799999982119,7.92000007629,22.0,12.5699996948
"2004-10-05 19:00:00",18.1499996185,0.0010000000475,0.800000011921,0.070000000298,7.94999980927,20.2999992371,12.5399999619
"2004-10-05 20:00:00",17.5100002289,0.0010000000475,0.800000011921,0.0799999982119,7.94000005722,14.6000003815,12.5200004578
"2004-10-05 21:00:00",17.3999996185,0.0010000000475,0.800000011921,0.0799999982119,7.88000011444,13.5,12.5100002289
"2004-10-05 22:00:00",17.2700004578,0.0010000000475,0.800000011921,0.0799999982119,7.86999988556,12.8000001907,12.4899997711
"2004-10-05 23:00:00",17.0200004578,0.0010000000475,0.800000011921,0.0799999982119,7.92999982834,12.5,12.4799995422
"2004-10-06 00:00:00",16.6800003052,0.0010000000475,0.800000011921,0.0799999982119,7.88999986649,11.8999996185,12.4600000381
"2004-10-06 01:00:00",16.5799999237,0.0010000000475,0.800000011921,0.0799999982119,7.84999990463,13.1999998093,12.4399995804
"2004-10-06 02:00:00",16.2199993134,0.0010000000475,0.800000011921,0.0799999982119,7.92999982834,14.6999998093,12.4399995804
"2004-10-06 03:00:00",16.1599998474,0.0010000000475,0.800000011921,0.0799999982119,7.88999986649,15.8000001907,12.4200000763
"2004-10-06 04:00:00",16.2099990845,0.0010000000475,0.800000011921,0.0799999982119,7.90999984741,14.3999996185,12.3999996185
"2004-10-06 05:00:00",16.3199996948,0.0010000000475,0.800000011921,0.0799999982119,7.94000005722,12.0,12.3900003433
"2004-10-06 06:00:00",15.9799995422,0.0010000000475,0.800000011921,0.0799999982119,7.94999980927,11.3000001907,12.3800001144
"2004-10-06 07:00:00",15.5600004196,0.0010000000475,0.800000011921,0.0799999982119,7.92000007629,10.5,12.3599996567
"2004-10-06 08:00:00",15.3599996567,0.0010000000475,0.800000011921,0.0799999982119,7.92000007629,10.6000003815,12.3400001526
"2004-10-06 09:00:00",15.5699996948,0.0010000000475,0.800000011921,0.0799999982119,7.92000007629,10.5,12.3500003815
"2004-10-06 10:00:00",15.8900003433,0.0010000000475,0.800000011921,0.0799999982119,7.94999980927,9.60000038147,12.779999733
"2004-10-06 11:00:00",16.3999996185,0.0010000000475,0.800000011921,0.0799999982119,8.11999988556,8.19999980927,13.1000003815
"2004-10-06 12:00:00",16.2099990845,0.0010000000475,0.800000011921,0.0799999982119,8.02000045776,7.80000019073,13.2600002289
"2004-10-06 13:00:00",17.7099990845,0.0010000000475,0.800000011921,0.0799999982119,8.10000038147,7.19999980927,13.3199996948
"2004-10-06 14:00:00",17.6499996185,0.0010000000475,0.800000011921,0.0799999982119,8.15999984741,7.0,13.279999733
"2004-10-06 15:00:00",18.4099998474,0.0,0.800000011921,0.0799999982119,8.22000026703,13.3000001907,13.2299995422
"2004-10-06 16:00:00",17.5400009155,0.0010000000475,0.800000011921,0.0799999982119,8.10999965668,87.5,13.1899995804
"2004-10-06 17:00:00",17.3999996185,0.0010000000475,0.800000011921,0.0799999982119,8.06000041962,44.7000007629,12.6300001144
"2004-10-06 18:00:00",17.2900009155,0.0010000000475,0.800000011921,0.0799999982119,8.02000045776,20.3999996185,12.5799999237
"2004-10-06 19:00:00",16.8799991608,0.0010000000475,0.800000011921,0.0799999982119,7.98999977112,23.3999996185,12.5600004196
"2004-10-06 20:00:00",16.3199996948,0.0010000000475,0.699999988079,0.070000000298,8.39000034332,27.5,12.5200004578
"2004-10-06 21:00:00",15.8000001907,0.0010000000475,0.800000011921,0.0799999982119,8.47999954224,33.0,12.5100002289
"2004-10-06 22:00:00",15.4899997711,0.0010000000475,0.800000011921,0.0799999982119,8.43999958038,44.5,12.5
"2004-10-06 23:00:00",14.7899999619,0.0010000000475,0.800000011921,0.0799999982119,8.44999980927,43.5,12.470000267
"2004-10-07 00:00:00",15.529999733,0.0010000000475,0.699999988079,0.070000000298,8.34000015259,36.5999984741,12.4600000381
"2004-10-07 01:00:00",14.9899997711,0.0010000000475,0.699999988079,0.0799999982119,7.96000003815,34.2999992371,12.4399995804
"2004-10-07 02:00:00",14.720000267,0.0010000000475,0.699999988079,0.0799999982119,8.35999965668,23.2999992371,12.4200000763
"2004-10-07 03:00:00",13.5600004196,0.0010000000475,0.699999988079,0.0799999982119,8.28999996185,18.7999992371,12.3999996185
"2004-10-07 04:00:00",13.5399999619,0.0010000000475,0.699999988079,0.0799999982119,7.76000022888,16.1000003815,12.3800001144
"2004-10-07 05:00:00",13.1499996185,0.0010000000475,0.699999988079,0.0799999982119,7.71000003815,13.0,12.3599996567
"2004-10-07 06:00:00",12.9200000763,0.0010000000475,0.699999988079,0.0799999982119,7.59000015259,11.6000003815,12.3400001526
"2004-10-07 07:00:00",12.4799995422,0.0010000000475,0.699999988079,0.0799999982119,7.48999977112,10.8000001907,12.3100004196
"2004-10-07 08:00:00",12.3000001907,0.0010000000475,0.699999988079,0.0799999982119,7.46999979019,9.80000019073,12.2899999619
"2004-10-07 09:00:00",13.7399997711,0.0010000000475,0.699999988079,0.070000000298,8.01000022888,8.60000038147,12.2899999619
"2004-10-07 10:00:00",14.3800001144,0.0010000000475,0.699999988079,0.0799999982119,7.92999982834,7.59999990463,12.6999998093
"2004-10-07 11:00:00",15.6800003052,0.0010000000475,0.800000011921,0.0799999982119,8.01000022888,7.09999990463,12.7899999619
"2004-10-07 12:00:00",15.6000003815,0.0010000000475,0.800000011921,0.0799999982119,8.19999980927,6.80000019073,13.0200004578
"2004-10-07 13:00:00",17.8600006104,0.0010000000475,0.800000011921,0.0799999982119,8.17000007629,6.69999980927,13.2600002289
"2004-10-07 14:00:00",17.9099998474,0.0,0.800000011921,0.0799999982119,8.30000019073,6.19999980927,12.8699998856
"2004-10-07 15:00:00",19.1299991608,0.0,0.899999976158,0.0799999982119,8.23999977112,6.09999990463,13.1899995804
"2004-10-07 16:00:00",17.5400009155,0.0010000000475,0.800000011921,0.0799999982119,8.27000045776,6.0,13.1499996185
"2004-10-07 17:00:00",17.2199993134,0.0010000000475,0.800000011921,0.0799999982119,8.11999988556,6.30000019073,12.6300001144
"2004-10-07 18:00:00",17.0799999237,0.0010000000475,0.800000011921,0.0799999982119,8.06000041962,5.59999990463,12.5900001526
"2004-10-07 19:00:00",16.8799991608,0.0010000000475,0.800000011921,0.0799999982119,8.03999996185,5.69999980927,12.5600004196
"2004-10-07 20:00:00",16.5799999237,0.0010000000475,0.800000011921,0.0799999982119,8.01000022888,5.19999980927,12.529999733
"2004-10-07 21:00:00",16.0300006866,0.0010000000475,0.800000011921,0.0799999982119,8.38000011444,5.69999980927,12.5100002289
"2004-10-07 22:00:00",15.2600002289,0.0010000000475,0.800000011921,0.0799999982119,8.40999984741,5.80000019073,12.4899997711
"2004-10-07 23:00:00",14.9399995804,0.0010000000475,0.800000011921,0.0799999982119,8.39000034332,9.10000038147,12.4799995422
"2004-10-08 00:00:00",14.3299999237,0.0010000000475,0.699999988079,0.0799999982119,8.35000038147,16.7000007629,12.4600000381
"2004-10-08 01:00:00",14.2600002289,0.0010000000475,0.699999988079,0.070000000298,8.36999988556,35.9000015259,12.4399995804
"2004-10-08 02:00:00",14.9799995422,0.0010000000475,0.699999988079,0.0799999982119,8.13000011444,44.5,12.4200000763
"2004-10-08 03:00:00",14.2600002289,0.0010000000475,0.699999988079,0.0799999982119,8.03999996185,46.0999984741,12.3999996185
"2004-10-08 04:00:00",13.9799995422,0.0010000000475,0.699999988079,0.0799999982119,8.35000038147,44.2000007629,12.3800001144
"2004-10-08 05:00:00",13.1199998856,0.0010000000475,0.699999988079,0.070000000298,8.28999996185,39.9000015259,12.3599996567
"2004-10-08 06:00:00",12.7100000381,0.0010000000475,0.699999988079,0.0799999982119,8.27999973297,36.4000015259,12.3400001526
"2004-10-08 07:00:00",12.4600000381,0.0010000000475,0.699999988079,0.070000000298,8.28999996185,30.2000007629,12.3100004196
"2004-10-08 08:00:00",12.4300003052,0.0010000000475,0.699999988079,0.070000000298,8.23999977112,24.0,12.2899999619
"2004-10-08 09:00:00",12.75,0.0010000000475,0.699999988079,0.0799999982119,8.19999980927,19.2999992371,12.2899999619
"2004-10-08 10:00:00",13.8199996948,0.0010000000475,0.699999988079,0.0799999982119,8.15999984741,13.6000003815,12.6999998093
"2004-10-08 11:00:00",15.7299995422,0.0010000000475,0.800000011921,0.0799999982119,8.13000011444,11.6000003815,12.9300003052
"2004-10-08 12:00:00",15.470000267,0.202999994159,1.0,0.10000000149,8.05000019073,27.8999996185,13.0799999237
"2004-10-08 13:00:00",17.0400009155,0.00200000009499,0.899999976158,0.0799999982119,8.15999984741,25.5,13.2700004578
"2004-10-08 14:00:00",16.6100006104,0.187000006437,1.0,0.10000000149,8.23999977112,17.7000007629,12.8500003815
"2004-10-08 15:00:00",17.3500003815,0.00300000002608,0.899999976158,0.0900000035763,8.01000022888,13.1999998093,13.1700000763
"2004-10-08 16:00:00",17.3299999237,0.0010000000475,0.899999976158,0.0799999982119,8.0,12.1999998093,13.1199998856
"2004-10-08 17:00:00",17.3099994659,0.0010000000475,0.800000011921,0.0799999982119,7.98999977112,10.1999998093,12.6300001144
"2004-10-08 18:00:00",17.1200008392,0.0010000000475,0.800000011921,0.0799999982119,8.40999984741,12.6999998093,12.5900001526
"2004-10-08 19:00:00",16.2900009155,0.0010000000475,0.800000011921,0.070000000298,8.43000030518,9.60000038147,12.5600004196
"2004-10-08 20:00:00",16.0599994659,0.0010000000475,0.800000011921,0.0799999982119,8.32999992371,9.39999961853,12.5399999619
"2004-10-08 21:00:00",15.6199998856,0.0010000000475,0.800000011921,0.0799999982119,8.31999969482,9.80000019073,12.5200004578
"2004-10-08 22:00:00",15.2700004578,0.0010000000475,0.699999988079,0.070000000298,8.27000045776,10.5,12.4899997711
"2004-10-08 23:00:00",14.7700004578,0.0010000000475,0.699999988079,0.070000000298,8.22000026703,10.5,12.470000267
"2004-10-09 00:00:00",14.5900001526,0.0010000000475,0.699999988079,0.070000000298,8.18999958038,10.8000001907,12.4600000381
"2004-10-09 01:00:00",14.3500003815,0.0010000000475,0.699999988079,0.070000000298,8.14999961853,11.5,12.4399995804
"2004-10-09 02:00:00",13.9300003052,0.0010000000475,0.699999988079,0.070000000298,8.09000015259,13.0,12.4300003052
"2004-10-09 03:00:00",13.8999996185,0.0010000000475,0.699999988079,0.070000000298,8.06000041962,13.8000001907,12.3999996185
"2004-10-09 04:00:00",13.75,0.0010000000475,0.699999988079,0.070000000298,8.01000022888,13.1999998093,12.3900003433
"2004-10-09 05:00:00",13.6899995804,0.0010000000475,0.699999988079,0.070000000298,8.03999996185,11.5,12.3599996567